STARLINK-4201 (52856 NORAD) Tracking and Keplerian Element Data

This shows tracking and keplerian element data for the satellite.

Feedback or suggestion? Click here.




ElementValue
Catalog52856
NameSTARLINK-4201
Epoch Orbit1628
Epoch Day270.25001157
Epoch Year2022
RAAN277.96
Inclination53.2132
Eccentricity0.0001982
Argument of Perigee43.2643
Mean Anonmoly210.0911
Mean Motion15.08844136
Decay Rate-0.00016886
L11 52856U 22062AC 22270.25001157 -.00016886 00000+0 -10452-2 0 9996
L22 52856 53.2132 277.9600 0001982 43.2643 210.0911 15.08844136 16288

Live tracking and technical data element details for STARLINK-4201 (NORAD 52856). STARLINK-4201 can be tracked NOW for your location showing map with azimuth and elevation plus other details from your city location.

Track the satellite on the map from your city or location and see movement details for azimuth, elevation, latitude, longitude, range, height, and movement on the map or in text.







IsCatalogInMostPopularTable: catalog: 52856, numindb: 7
Update: records affected: 1



GetName: 52856 STARLINK-4201

Hit Count: updated at: Thu, 06 Oct 2022 04:43:29 GMT